Location: Miami, Florida
(25.6830°N, 80.1700°W)
Time: 07:00:04
(UTC-04:00)

Vanguard 2 - Visible Passes

Search period start: 20 June 2018 00:00
Search period end: 30 June 2018 00:00
Orbit: 553 x 2939 km, 32.9° (Epoch: 19 June)

Date Brightness Start Highest point End Pass type
(mag) Time Alt. Az. Time Alt. Az. Time Alt. Az.
20 Jun 8.4 03:40:20 51° ESE 03:40:20 51° ESE 03:44:35 10° ENE visible
20 Jun 8.1 05:42:21 10° W 05:48:02 47° NNW 05:52:08 10° ENE visible
21 Jun 7.9 03:57:01 75° SSW 03:57:29 80° SSE 04:02:43 10° ENE visible
21 Jun 8.4 06:00:58 10° W 06:06:15 38° NNW 06:10:11 10° ENE visible
22 Jun 10.4 02:12:16 12° E 02:12:16 12° E 02:12:42 10° E visible
22 Jun 7.9 04:13:39 49° W 04:15:37 78° NNW 04:20:45 10° ENE visible
23 Jun 9.8 02:28:51 24° E 02:28:51 24° E 02:31:03 10° ENE visible
23 Jun 8.2 04:30:14 30° W 04:33:47 60° NNW 04:38:46 10° ENE visible
24 Jun 9.1 02:45:22 43° E 02:45:22 43° E 02:49:15 10° ENE visible
24 Jun 8.5 04:46:45 18° W 04:52:00 49° NNW 04:56:47 10° ENE visible
25 Jun 8.5 03:01:49 73° ENE 03:01:49 73° ENE 03:07:19 10° ENE visible
25 Jun 8.7 05:03:15 10° W 05:10:15 43° N 05:14:52 10° ENE visible
25 Jun 11.5 22:46:43 10° S 22:46:56 10° S 22:46:56 10° S visible
26 Jun 10.7 01:16:49 12° E 01:16:49 12° E 01:17:16 10° ENE visible
26 Jun 8.6 03:18:12 67° WNW 03:19:05 73° NNW 03:25:22 10° ENE visible
26 Jun 8.8 05:21:57 10° WNW 05:28:35 40° N 05:33:02 10° ENE visible
26 Jun 11.3 23:02:55 10° SSW 23:05:21 15° SSW 23:05:21 15° SSW visible
27 Jun 10.2 01:33:06 24° ENE 01:33:06 24° ENE 01:35:32 10° ENE visible
27 Jun 8.8 03:34:27 42° WNW 03:37:20 61° NNW 03:43:25 10° ENE visible
27 Jun 8.7 05:40:33 10° WNW 05:46:56 41° N 05:51:17 10° ENE visible
27 Jun 11.1 21:15:19 10° SSE 21:21:58 13° SE 21:22:32 13° SE visible
27 Jun 11.2 23:19:48 10° SSW 23:24:06 19° SSW 23:24:06 19° SSW visible
28 Jun 9.5 01:49:13 43° ENE 01:49:13 43° ENE 01:53:41 10° ENE visible
28 Jun 8.9 03:50:34 26° WNW 03:55:38 53° NNW 04:01:30 10° ENE visible
28 Jun 8.5 05:59:01 10° WNW 06:05:17 46° N 06:09:35 10° E visible
28 Jun 10.8 21:29:35 10° S 21:40:33 20° SE 21:41:41 20° SE visible
28 Jun 10.9 23:37:09 10° SW 00:03:50 - ENE 23:43:19 25° SSW visible
29 Jun 9.1 02:05:09 70° NE 02:05:09 70° NE 02:11:46 10° ENE visible
29 Jun 9.0 04:06:28 15° WNW 04:13:59 49° N 04:19:39 10° ENE visible
29 Jun 10.5 21:45:29 10° SSW 21:59:00 28° SE 22:01:27 27° SE visible
